Home > Weather > Mississauga > Past weeks

Flag for Canada Past Weather in Mississauga, Ontario, Canada — Yesterday and Last 2 Weeks

Now
81 °F

Passing clouds.


Feels Like: 81 °F
Forecast: 72 / 90 °F
Wind: 14 mph from Northwest

Location: Toronto Pearson International Airport

Current Time: Jul 23, 2016 at 9:24:51 AM

Latest Report: Jul 23, 2016 at 9:00 AM


Visibility: 15 mi

Pressure: 29.91 "Hg

Humidity: 48%

Dew Point: 59 °F

Location of MississaugaLocation

Past Weather in Mississauga — Graph

°F

Mississauga Temperature Yesterday

Maximum temperature yesterday: 95 °F (at 3:00 PM)
Minimum temperature yesterday: 73 °F (at 5:00 AM)
Average temperature yesterday: 84 °F

High & Low Weather Summary for the Past Weeks

 TemperatureHumidityPressure
High95 °F (Jul 13, 3:00 PM)94% (Jul 9, 12:00 AM)30.28 "Hg (Jul 9, 12:00 AM)
Low57 °F (Jul 17, 5:00 AM)26% (Jul 22, 6:00 PM)29.67 "Hg (Jul 9, 4:00 AM)
Average74 °F60%29.96 "Hg
* Reported Jul 8 8:00 AM — Jul 23 8:00 AM, Mississauga, Weather by CustomWeather, © 2016

Note: Actual official high and low records may vary slightly from our data, if they occured in-between our weather recording intervals... More about our weather records

Advertising

Mississauga Weather History for the Previous 24 Hours

Scroll right to see more
 ConditionsComfort  
Time TempWeatherWind HumidityBarometerVisibility
8:00 AM
Sat, Jul 23
79 °FPassing clouds.10 mph51%29.91 "Hg15 mi
7:00 AM73 °FPassing clouds.9 mph61%29.90 "Hg15 mi
6:00 AM73 °FPassing clouds.10 mph57%29.89 "Hg15 mi
5:00 AM75 °FClear.16 mph54%29.89 "Hg15 mi
4:00 AM72 °FClear.7 mph61%29.89 "Hg15 mi
3:00 AM75 °FClear.14 mph54%29.88 "Hg15 mi
2:00 AM75 °FClear.9 mph54%29.87 "Hg15 mi
1:00 AM75 °FPassing clouds.8 mph54%29.87 "Hg15 mi
12:00 AM79 °FPassing clouds.10 mph48%29.87 "Hg15 mi
11:00 PM
Fri, Jul 22
81 °FPassing clouds.14 mph45%29.87 "Hg15 mi
10:00 PM82 °FPassing clouds.13 mph42%29.86 "Hg15 mi
9:00 PM86 °FPassing clouds.14 mph35%29.85 "Hg15 mi
8:00 PM88 °FPassing clouds.22 mph33%29.84 "Hg15 mi
7:00 PM90 °FSunny.23 mph33%29.82 "Hg15 mi
6:00 PM93 °FPassing clouds.22 mph26%29.82 "Hg15 mi
5:00 PM93 °FPassing clouds.17 mph28%29.83 "Hg15 mi
4:00 PM91 °FPassing clouds.20 mph32%29.84 "Hg15 mi
3:00 PM95 °FPassing clouds.17 mph28%29.84 "Hg15 mi
2:00 PM93 °FPassing clouds.15 mph32%29.85 "Hg15 mi
1:00 PM90 °FPassing clouds.17 mph38%29.86 "Hg15 mi
12:00 PM90 °FScattered clouds.16 mph43%29.85 "Hg15 mi
11:00 AM88 °FPassing clouds.12 mph52%29.86 "Hg15 mi
10:00 AM84 °FPassing clouds.14 mph62%29.85 "Hg15 mi
9:00 AM81 °FPassing clouds.17 mph70%29.87 "Hg15 mi
Weather by CustomWeather, © 2016

See weather overviewHow to use our weather pages